Date String (YYYY-MM-DD hh:mm:ss) UTC,Instrument flags,Ambient pressure (hPa),Sample flow (lpm),Bypass flow (lpm),Sample temperature (°C),Ambient temperature (°C),ASC tube jacket temperature (°C),LED temperature (°C),Box temperature (°C),Sample RH (%),Span deviation,Mass concentration (μg/m³),Mass concentration (μg/m³),Mass concentration (μg/m³)
DateTimeUTC,F1_M11,P_M11,Q1_M11,Q2_M11,T1_M11,T2_M11,T3_M11,T4_M11,T5_M11,U1_M11,ZSPAN_M11,X0_M11,X2_M11,X1_M11
2021-10-09 04:00:00,,0823.3,4.99,0.00,29.7,28.7,00.0,38.7,31.5,20.6,0000.0,0007.96,0003.10,0002.27
2021-10-09 04:01:00,,0823.4,5.01,0.00,29.7,28.7,00.0,38.7,31.5,20.5,0000.0,0008.60,0003.04,0002.27
2021-10-09 04:02:00,,0823.4,5.01,0.00,29.7,28.7,00.0,38.7,31.5,20.4,0000.0,0008.50,0003.02,0002.26
2021-10-09 04:03:00,,0823.5,5.00,0.00,29.7,28.7,00.0,38.8,31.5,20.6,0000.0,0008.61,0003.01,0002.26
2021-10-09 04:04:00,,0823.5,5.00,0.00,29.7,28.7,00.0,38.8,31.4,20.7,0000.0,0008.67,0003.04,0002.25
2021-10-09 04:05:00,,0823.5,5.00,0.00,29.7,28.7,00.0,38.8,31.4,20.8,0000.0,0008.14,0003.03,0002.25
2021-10-09 04:06:00,,0823.4,5.01,0.00,29.7,28.7,00.0,38.8,31.4,20.9,0000.0,0008.28,0003.07,0002.27
2021-10-09 04:07:00,,0823.4,5.00,0.00,29.7,28.7,00.0,38.8,31.4,20.9,0000.0,0008.38,0003.09,0002.29
2021-10-09 04:08:00,,0823.4,4.99,0.00,29.7,28.7,00.0,38.8,31.4,20.8,0000.0,0008.47,0003.13,0002.31
2021-10-09 04:09:00,,0823.4,5.00,0.00,29.7,28.7,00.0,38.8,31.4,20.8,0000.0,0009.16,0003.15,0002.31
2021-10-09 04:10:00,,0823.3,5.00,0.00,29.7,28.8,00.0,38.8,31.4,20.9,0000.0,0008.82,0003.15,0002.31
2021-10-09 04:11:00,,0823.3,5.00,0.00,29.7,28.8,00.0,38.8,31.4,20.9,0000.0,0008.67,0003.16,0002.33
2021-10-09 04:12:00,,0823.3,5.00,0.00,29.7,28.8,00.0,38.8,31.4,20.9,0000.0,0008.30,0003.21,0002.35
2021-10-09 04:13:00,,0823.3,4.99,0.00,29.7,28.8,00.0,38.8,31.4,20.9,0000.0,0008.81,0003.24,0002.36
2021-10-09 04:14:00,,0823.4,5.01,0.00,29.7,28.8,00.0,38.8,31.4,21.0,0000.0,0009.05,0003.26,0002.39
2021-10-09 04:15:00,,0823.4,4.99,0.00,29.6,28.8,00.0,38.8,31.4,21.0,0000.0,0008.95,0003.23,0002.39
2021-10-09 04:16:00,,0823.6,4.99,0.00,29.6,28.8,00.0,38.8,31.4,21.1,0000.0,0008.75,0003.23,0002.40
2021-10-09 04:17:00,,0823.7,5.01,0.00,29.6,28.8,00.0,38.8,31.3,21.1,0000.0,0008.52,0003.23,0002.41
2021-10-09 04:18:00,,0823.6,5.00,0.00,29.6,28.8,00.0,38.8,31.3,21.2,0000.0,0008.94,0003.26,0002.42
2021-10-09 04:19:00,,0823.6,5.00,0.00,29.6,28.8,00.0,38.8,31.3,21.1,0000.0,0009.40,0003.28,0002.42
2021-10-09 04:20:00,,0823.4,5.00,0.00,29.6,28.7,00.0,38.8,31.3,21.1,0000.0,0008.64,0003.26,0002.40
2021-10-09 04:21:00,,0823.4,4.99,0.00,29.6,28.7,00.0,38.8,31.3,21.1,0000.0,0008.56,0003.23,0002.38
2021-10-09 04:22:00,,0823.3,5.02,0.00,29.6,28.7,00.0,38.8,31.3,20.9,0000.0,0008.48,0003.22,0002.36
2021-10-09 04:23:00,,0823.3,5.00,0.00,29.6,28.7,00.0,38.8,31.3,21.0,0000.0,0008.29,0003.23,0002.34
2021-10-09 04:24:00,,0823.3,5.00,0.00,29.6,28.7,00.0,38.8,31.3,21.1,0000.0,0007.66,0003.20,0002.32
2021-10-09 04:25:00,,0823.3,5.01,0.00,29.6,28.8,00.0,38.8,31.3,20.6,0000.0,0007.21,0003.15,0002.29
2021-10-09 04:26:00,,0823.4,5.00,0.00,29.6,28.7,00.0,38.8,31.3,20.5,0000.0,0007.35,0003.13,0002.25
2021-10-09 04:27:00,,0823.4,5.00,0.00,29.6,28.7,00.0,38.8,31.3,20.6,0000.0,0007.59,0003.12,0002.20
2021-10-09 04:28:00,,0823.4,5.00,0.00,29.6,28.7,00.0,38.8,31.3,20.6,0000.0,0007.59,0003.11,0002.15
2021-10-09 04:29:00,,0823.4,5.00,0.00,29.6,28.8,00.0,38.8,31.3,20.7,0000.0,0007.07,0003.06,0002.11
2021-10-09 04:30:00,,0823.4,4.99,0.00,29.6,28.8,00.0,38.8,31.3,20.6,0000.0,0006.03,0002.98,0002.07
2021-10-09 04:31:00,,0823.3,5.00,0.00,29.6,28.8,00.0,38.8,31.3,20.5,0000.0,0006.03,0002.97,0002.04
2021-10-09 04:32:00,,0823.3,5.00,0.00,29.6,28.8,00.0,38.7,31.3,20.6,0000.0,0006.39,0002.98,0002.01
2021-10-09 04:33:00,,0823.2,5.01,0.00,29.6,28.9,00.0,38.7,31.4,20.6,0000.0,0007.66,0002.93,0001.99
2021-10-09 04:34:00,,0823.2,5.00,0.00,29.7,28.9,00.0,38.8,31.4,20.7,0000.0,0007.62,0002.86,0002.00
2021-10-09 04:35:00,,0823.2,4.99,0.00,29.7,29.0,00.0,38.8,31.5,20.7,0000.0,0007.47,0002.87,0002.01
2021-10-09 04:36:00,,0823.2,5.00,0.00,29.7,29.0,00.0,38.8,31.5,20.3,0000.0,0007.74,0002.98,0002.01
2021-10-09 04:37:00,,0823.2,5.01,0.00,29.8,29.1,00.0,38.8,31.6,20.3,0000.0,0007.69,0002.99,0002.02
2021-10-09 04:38:00,,0823.3,5.01,0.00,29.8,29.1,00.0,38.8,31.6,20.1,0000.0,0007.41,0002.96,0002.03
2021-10-09 04:39:00,,0823.2,5.01,0.00,29.8,29.1,00.0,38.8,31.6,20.0,0000.0,0007.48,0002.99,0002.04
2021-10-09 04:40:00,,0823.2,5.00,0.00,29.8,29.1,00.0,38.9,31.6,20.0,0000.0,0007.57,0003.00,0002.04
2021-10-09 04:41:00,,0823.1,4.99,0.00,29.9,29.2,00.0,38.9,31.7,19.9,0000.0,0007.48,0002.94,0002.03
2021-10-09 04:42:00,,0823.1,4.99,0.00,29.9,29.2,00.0,38.9,31.7,19.9,0000.0,0007.53,0002.92,0002.04
2021-10-09 04:43:00,,0823.2,5.00,0.00,29.9,29.2,00.0,38.9,31.7,20.2,0000.0,0007.23,0002.94,0002.07
2021-10-09 04:44:00,,0823.2,5.01,0.00,29.9,29.2,00.0,38.9,31.8,20.2,0000.0,0006.17,0003.01,0002.11
2021-10-09 04:45:00,,0823.2,5.00,0.00,30.0,29.2,00.0,38.9,31.8,20.1,0000.0,0006.02,0003.04,0002.11
2021-10-09 04:46:00,,0823.1,5.01,0.00,30.0,29.2,00.0,39.0,31.7,20.1,0000.0,0005.96,0003.08,0002.11
2021-10-09 04:47:00,,0823.1,5.00,0.00,30.0,29.3,00.0,39.0,31.8,19.9,0000.0,0005.73,0003.06,0002.12
2021-10-09 04:48:00,,0823.1,4.99,0.00,30.0,29.3,00.0,39.0,31.8,19.5,0000.0,0005.98,0003.07,0002.14
2021-10-09 04:49:00,,0823.1,5.01,0.00,30.0,29.3,00.0,39.0,31.8,19.2,0000.0,0006.20,0003.08,0002.15
2021-10-09 04:50:00,,0823.1,4.99,0.00,30.1,28.7,00.0,39.0,31.7,19.1,0000.0,0006.09,0003.02,0002.16
2021-10-09 04:51:00,,0823.1,5.01,0.00,29.9,26.5,00.0,39.0,31.0,19.3,0000.0,0006.47,0002.99,0002.17
2021-10-09 04:52:00,,0823.1,5.00,0.00,29.7,26.1,00.0,39.0,30.9,19.4,0000.0,0006.89,0003.03,0002.22
2021-10-09 04:53:00,,0823.1,5.00,0.00,29.6,26.4,00.0,38.9,31.0,19.5,0000.0,0006.97,0003.10,0002.26
2021-10-09 04:54:00,,0823.1,5.00,0.00,29.6,26.9,00.0,38.9,31.1,19.6,0000.0,0006.91,0003.08,0002.28
2021-10-09 04:55:00,,0823.1,5.00,0.00,29.6,27.3,00.0,38.8,31.1,19.5,0000.0,0007.15,0003.09,0002.28
2021-10-09 04:56:00,,0823.1,4.99,0.00,29.6,27.6,00.0,38.8,31.2,19.6,0000.0,0007.49,0003.07,0002.28
2021-10-09 04:57:00,,0823.1,4.99,0.00,29.6,27.8,00.0,38.8,31.2,19.5,0000.0,0007.54,0003.07,0002.30
2021-10-09 04:58:00,,0823.1,5.00,0.00,29.6,28.0,00.0,38.8,31.3,19.4,0000.0,0007.89,0003.07,0002.31
2021-10-09 04:59:00,,0823.1,5.01,0.00,29.6,28.1,00.0,38.8,31.3,19.5,0000.0,0007.78,0003.09,0002.32
